����������;��������(kVARh)
2017-08-28 00:00;8,85
2017-08-28 00:15;10,55
2017-08-28 00:30;11,65
2017-08-28 00:45;17,2
2017-08-28 01:00;21,4
2017-08-28 01:15;16,35
2017-08-28 01:30;11,4
2017-08-28 01:45;14,3
2017-08-28 02:00;13,7
2017-08-28 02:15;14,55
2017-08-28 02:30;13,6
2017-08-28 02:45;14,8
2017-08-28 03:00;16,15
2017-08-28 03:15;14,65
2017-08-28 03:30;13,5
2017-08-28 03:45;15,4
2017-08-28 04:00;16,1
2017-08-28 04:15;16,15
2017-08-28 04:30;15,4
2017-08-28 04:45;17,55
2017-08-28 05:00;14,25
2017-08-28 05:15;17,65
2017-08-28 05:30;16,25
2017-08-28 05:45;15,65
2017-08-28 06:00;14,35
2017-08-28 06:15;15,05
2017-08-28 06:30;14,3
2017-08-28 06:45;16,5
2017-08-28 07:00;14,15
2017-08-28 07:15;18,95
2017-08-28 07:30;16,55
2017-08-28 07:45;17,75
2017-08-28 08:00;16,35
2017-08-28 08:15;21,6
2017-08-28 08:30;47,15
2017-08-28 08:45;58,75
2017-08-28 09:00;43,35
2017-08-28 09:15;49,7
2017-08-28 09:30;53,2
2017-08-28 09:45;48,75
2017-08-28 10:00;65,2
2017-08-28 10:15;65,1
2017-08-28 10:30;59,9
2017-08-28 10:45;60,75
2017-08-28 11:00;61,25
2017-08-28 11:15;83,35
2017-08-28 11:30;102,5
2017-08-28 11:45;85,5
2017-08-28 12:00;76
2017-08-28 12:15;86
2017-08-28 12:30;86,4
2017-08-28 12:45;87,7
2017-08-28 13:00;88,7
2017-08-28 13:15;87,4
2017-08-28 13:30;87,65
2017-08-28 13:45;90,65
2017-08-28 14:00;88,15
2017-08-28 14:15;90,6
2017-08-28 14:30;91,9
2017-08-28 14:45;74,5
2017-08-28 15:00;71,3
2017-08-28 15:15;65,7
2017-08-28 15:30;62,1
2017-08-28 15:45;63,85
2017-08-28 16:00;63,4
2017-08-28 16:15;65,7
2017-08-28 16:30;65,35
2017-08-28 16:45;66,3
2017-08-28 17:00;65,3
2017-08-28 17:15;61,2
2017-08-28 17:30;61,8
2017-08-28 17:45;58,55
2017-08-28 18:00;56,15
2017-08-28 18:15;54,4
2017-08-28 18:30;52,9
2017-08-28 18:45;52,1
2017-08-28 19:00;50,25
2017-08-28 19:15;42,9
2017-08-28 19:30;41,05
2017-08-28 19:45;40,25
2017-08-28 20:00;38,65
2017-08-28 20:15;38,35
2017-08-28 20:30;34,75
2017-08-28 20:45;32,65
2017-08-28 21:00;33,3
2017-08-28 21:15;33,2
2017-08-28 21:30;33,6
2017-08-28 21:45;29,4
2017-08-28 22:00;28,4
2017-08-28 22:15;30,05
2017-08-28 22:30;34,05
2017-08-28 22:45;30,1
2017-08-28 23:00;30,15
2017-08-28 23:15;24,8
2017-08-28 23:30;26,7
2017-08-28 23:45;24,75
2017-08-29 00:00;15
2017-08-29 00:15;15,4
2017-08-29 00:30;15,3
2017-08-29 00:45;16,7
2017-08-29 01:00;18,9
2017-08-29 01:15;17,6
2017-08-29 01:30;18,2
2017-08-29 01:45;12,1
2017-08-29 02:00;7,35
2017-08-29 02:15;7,85
2017-08-29 02:30;7,75
2017-08-29 02:45;8,5
2017-08-29 03:00;8,1
2017-08-29 03:15;7,95
2017-08-29 03:30;11
2017-08-29 03:45;9,6
2017-08-29 04:00;8,25
2017-08-29 04:15;8,85
2017-08-29 04:30;8,7
2017-08-29 04:45;9,9
2017-08-29 05:00;9,45
2017-08-29 05:15;9,35
2017-08-29 05:30;10,45
2017-08-29 05:45;9,3
2017-08-29 06:00;10,5
2017-08-29 06:15;9,2
2017-08-29 06:30;12,95
2017-08-29 06:45;19,1
2017-08-29 07:00;12,4
2017-08-29 07:15;18,2
2017-08-29 07:30;20,35
2017-08-29 07:45;22,95
2017-08-29 08:00;26,3
2017-08-29 08:15;24,95
2017-08-29 08:30;27,95
2017-08-29 08:45;29,5
2017-08-29 09:00;33,5
2017-08-29 09:15;38,25
2017-08-29 09:30;41,5
2017-08-29 09:45;50,55
2017-08-29 10:00;52,35
2017-08-29 10:15;51,9
2017-08-29 10:30;53,15
2017-08-29 10:45;56,4
2017-08-29 11:00;62,05
2017-08-29 11:15;97,35
2017-08-29 11:30;99,9
2017-08-29 11:45;93,45
2017-08-29 12:00;74,7
2017-08-29 12:15;84,2
2017-08-29 12:30;88,3
2017-08-29 12:45;81,2
2017-08-29 13:00;85,35
2017-08-29 13:15;83,75
2017-08-29 13:30;76,1
2017-08-29 13:45;83,55
2017-08-29 14:00;88,85
2017-08-29 14:15;78,2
2017-08-29 14:30;82,95
2017-08-29 14:45;84,1
2017-08-29 15:00;77,35
2017-08-29 15:15;76,05
2017-08-29 15:30;81,6
2017-08-29 15:45;68,6
2017-08-29 16:00;68,8
2017-08-29 16:15;72,25
2017-08-29 16:30;66,95
2017-08-29 16:45;79,15
2017-08-29 17:00;66,4
2017-08-29 17:15;63,65
2017-08-29 17:30;61,2
2017-08-29 17:45;60,1
2017-08-29 18:00;57,15
2017-08-29 18:15;46,7
2017-08-29 18:30;46,4
2017-08-29 18:45;44,9
2017-08-29 19:00;44,5
2017-08-29 19:15;42,75
2017-08-29 19:30;39,5
2017-08-29 19:45;36,4
2017-08-29 20:00;36,4
2017-08-29 20:15;34,8
2017-08-29 20:30;32,9
2017-08-29 20:45;32,45
2017-08-29 21:00;30
2017-08-29 21:15;32,45
2017-08-29 21:30;35,2
2017-08-29 21:45;33,4
2017-08-29 22:00;29,95
2017-08-29 22:15;33,05
2017-08-29 22:30;25,8
2017-08-29 22:45;18,95
2017-08-29 23:00;21,7
2017-08-29 23:15;21,15
2017-08-29 23:30;20,5
2017-08-29 23:45;19,4
2017-08-30 00:00;21,25
2017-08-30 00:15;21,55
2017-08-30 00:30;22,1
2017-08-30 00:45;25,35
2017-08-30 01:00;21,55
2017-08-30 01:15;12,1
2017-08-30 01:30;11,3
2017-08-30 01:45;11,15
2017-08-30 02:00;14
2017-08-30 02:15;12,1
2017-08-30 02:30;13,05
2017-08-30 02:45;14,8
2017-08-30 03:00;15
2017-08-30 03:15;14,6
2017-08-30 03:30;14,75
2017-08-30 03:45;16,1
2017-08-30 04:00;16,15
2017-08-30 04:15;19,3
2017-08-30 04:30;22,45
2017-08-30 04:45;19,95
2017-08-30 05:00;20,45
2017-08-30 05:15;21,95
2017-08-30 05:30;22,55
2017-08-30 05:45;22,85
2017-08-30 06:00;24,4
2017-08-30 06:15;35
2017-08-30 06:30;39,35
2017-08-30 06:45;41,6
2017-08-30 07:00;34,75
2017-08-30 07:15;36
2017-08-30 07:30;53,6
2017-08-30 07:45;46
2017-08-30 08:00;33,7
2017-08-30 08:15;32,15
2017-08-30 08:30;33,45
2017-08-30 08:45;49,2
2017-08-30 09:00;42,3
2017-08-30 09:15;38,25
2017-08-30 09:30;53,75
2017-08-30 09:45;52,35
2017-08-30 10:00;57,25
2017-08-30 10:15;55,3
2017-08-30 10:30;56,45
2017-08-30 10:45;75,05
2017-08-30 11:00;79,45
2017-08-30 11:15;62,05
2017-08-30 11:30;74,2
2017-08-30 11:45;72,9
2017-08-30 12:00;83,45
2017-08-30 12:15;75,7
2017-08-30 12:30;77,2
2017-08-30 12:45;75,5
2017-08-30 13:00;75,55
2017-08-30 13:15;69,55
2017-08-30 13:30;64,35
2017-08-30 13:45;65,85
2017-08-30 14:00;65,6
2017-08-30 14:15;63,05
2017-08-30 14:30;72,4
2017-08-30 14:45;99,95
2017-08-30 15:00;94,5
2017-08-30 15:15;64,4
2017-08-30 15:30;79,9
2017-08-30 15:45;82,85
2017-08-30 16:00;81,95
2017-08-30 16:15;80,7
2017-08-30 16:30;68,7
2017-08-30 16:45;69,1
2017-08-30 17:00;66,25
2017-08-30 17:15;64,8
2017-08-30 17:30;64,2
2017-08-30 17:45;68,2
2017-08-30 18:00;75,05
2017-08-30 18:15;55,15
2017-08-30 18:30;51,4
2017-08-30 18:45;50,8
2017-08-30 19:00;48,4
2017-08-30 19:15;45,6
2017-08-30 19:30;45,55
2017-08-30 19:45;39,05
2017-08-30 20:00;31,75
2017-08-30 20:15;28,85
2017-08-30 20:30;25,55
2017-08-30 20:45;25,15
2017-08-30 21:00;26,15
2017-08-30 21:15;28,55
2017-08-30 21:30;25,15
2017-08-30 21:45;22,95
2017-08-30 22:00;20,3
2017-08-30 22:15;24,7
2017-08-30 22:30;25,5
2017-08-30 22:45;25,5
2017-08-30 23:00;27,1
2017-08-30 23:15;23
2017-08-30 23:30;23,9
2017-08-30 23:45;25
2017-08-31 00:00;15,85
2017-08-31 00:15;13,2
2017-08-31 00:30;12,4
2017-08-31 00:45;11,6
2017-08-31 01:00;11,75
2017-08-31 01:15;13,45
2017-08-31 01:30;12,2
2017-08-31 01:45;15
2017-08-31 02:00;13,7
2017-08-31 02:15;14,25
2017-08-31 02:30;13,4
2017-08-31 02:45;13,6
2017-08-31 03:00;14,85
2017-08-31 03:15;14,4
2017-08-31 03:30;15,15
2017-08-31 03:45;14
2017-08-31 04:00;15,65
2017-08-31 04:15;15,15
2017-08-31 04:30;14,7
2017-08-31 04:45;14,6
2017-08-31 05:00;15,8
2017-08-31 05:15;15,7
2017-08-31 05:30;17,7
2017-08-31 05:45;14,75
2017-08-31 06:00;15,05
2017-08-31 06:15;13,25
2017-08-31 06:30;21,5
2017-08-31 06:45;24,55
2017-08-31 07:00;29,45
2017-08-31 07:15;31,85
2017-08-31 07:30;67,3
2017-08-31 07:45;65,55
2017-08-31 08:00;45,6
2017-08-31 08:15;35,25
2017-08-31 08:30;42,35
2017-08-31 08:45;39,75
2017-08-31 09:00;36,25
2017-08-31 09:15;38,95
2017-08-31 09:30;41,5
2017-08-31 09:45;62,45
2017-08-31 10:00;61,65
2017-08-31 10:15;63,65
2017-08-31 10:30;59,7
2017-08-31 10:45;63,05
2017-08-31 11:00;63,95
2017-08-31 11:15;70,85
2017-08-31 11:30;70,3
2017-08-31 11:45;66,25
2017-08-31 12:00;66,85
2017-08-31 12:15;74,6
2017-08-31 12:30;74,7
2017-08-31 12:45;81,45
2017-08-31 13:00;81,85
2017-08-31 13:15;77,5
2017-08-31 13:30;66,3
2017-08-31 13:45;69,65
2017-08-31 14:00;73,45
2017-08-31 14:15;78,7
2017-08-31 14:30;64,1
2017-08-31 14:45;65,05
2017-08-31 15:00;65,55
2017-08-31 15:15;61,9
2017-08-31 15:30;63,9
2017-08-31 15:45;62,5
2017-08-31 16:00;54,6
2017-08-31 16:15;59,95
2017-08-31 16:30;54,35
2017-08-31 16:45;54,25
2017-08-31 17:00;62,15
2017-08-31 17:15;59,2
2017-08-31 17:30;52,9
2017-08-31 17:45;54
2017-08-31 18:00;54,65
2017-08-31 18:15;45,65
2017-08-31 18:30;43,4
2017-08-31 18:45;40,2
2017-08-31 19:00;39,85
2017-08-31 19:15;34,15
2017-08-31 19:30;34,85
2017-08-31 19:45;32,9
2017-08-31 20:00;32,75
2017-08-31 20:15;26,9
2017-08-31 20:30;26,2
2017-08-31 20:45;25,75
2017-08-31 21:00;23,75
2017-08-31 21:15;23,9
2017-08-31 21:30;28,5
2017-08-31 21:45;28,45
2017-08-31 22:00;24,7
2017-08-31 22:15;20,75
2017-08-31 22:30;23,35
2017-08-31 22:45;23,55
2017-08-31 23:00;28
2017-08-31 23:15;24,35
2017-08-31 23:30;22,95
2017-08-31 23:45;17,05
2017-09-01 00:00;9,35
2017-09-01 00:15;9,5
2017-09-01 00:30;10,8
2017-09-01 00:45;11,85
2017-09-01 01:00;12,85
2017-09-01 01:15;11,5
2017-09-01 01:30;11,85
2017-09-01 01:45;12,8
2017-09-01 02:00;12,95
2017-09-01 02:15;13,9
2017-09-01 02:30;13,6
2017-09-01 02:45;14,65
2017-09-01 03:00;14,5
2017-09-01 03:15;16
2017-09-01 03:30;16,15
2017-09-01 03:45;14,4
2017-09-01 04:00;14,9
2017-09-01 04:15;13,6
2017-09-01 04:30;17
2017-09-01 04:45;15,95
2017-09-01 05:00;16
2017-09-01 05:15;17,35
2017-09-01 05:30;15,65
2017-09-01 05:45;16,05
2017-09-01 06:00;16,05
2017-09-01 06:15;17,85
2017-09-01 06:30;15,9
2017-09-01 06:45;24,7
2017-09-01 07:00;23,1
2017-09-01 07:15;31,9
2017-09-01 07:30;29,1
2017-09-01 07:45;34,1
2017-09-01 08:00;33,4
2017-09-01 08:15;34,85
2017-09-01 08:30;34,85
2017-09-01 08:45;36,5
2017-09-01 09:00;40,55
2017-09-01 09:15;41,6
2017-09-01 09:30;44,05
2017-09-01 09:45;46,7
2017-09-01 10:00;47,25
2017-09-01 10:15;48,05
2017-09-01 10:30;50,1
2017-09-01 10:45;47,3
2017-09-01 11:00;54,65
2017-09-01 11:15;63,3
2017-09-01 11:30;91,6
2017-09-01 11:45;92,3
2017-09-01 12:00;87,65
2017-09-01 12:15;71,95
2017-09-01 12:30;71,3
2017-09-01 12:45;76,45
2017-09-01 13:00;78,95
2017-09-01 13:15;74,45
2017-09-01 13:30;81,55
2017-09-01 13:45;78,75
2017-09-01 14:00;79,7
2017-09-01 14:15;82,4
2017-09-01 14:30;67,5
2017-09-01 14:45;83,6
2017-09-01 15:00;77,05
2017-09-01 15:15;60,25
2017-09-01 15:30;59,1
2017-09-01 15:45;61,2
2017-09-01 16:00;58,55
2017-09-01 16:15;54,4
2017-09-01 16:30;56,25
2017-09-01 16:45;55,4
2017-09-01 17:00;56,6
2017-09-01 17:15;56,75
2017-09-01 17:30;51,5
2017-09-01 17:45;52,95
2017-09-01 18:00;47,75
2017-09-01 18:15;43
2017-09-01 18:30;42,45
2017-09-01 18:45;41,15
2017-09-01 19:00;37,2
2017-09-01 19:15;33,3
2017-09-01 19:30;30,7
2017-09-01 19:45;33,55
2017-09-01 20:00;34,75
2017-09-01 20:15;26,85
2017-09-01 20:30;33,4
2017-09-01 20:45;33,95
2017-09-01 21:00;32,1
2017-09-01 21:15;34
2017-09-01 21:30;34,6
2017-09-01 21:45;31,55
2017-09-01 22:00;30,9
2017-09-01 22:15;32,5
2017-09-01 22:30;28,4
2017-09-01 22:45;27,4
2017-09-01 23:00;31
2017-09-01 23:15;23,75
2017-09-01 23:30;22,8
2017-09-01 23:45;24,7
2017-09-02 00:00;14,35
2017-09-02 00:15;5,35
2017-09-02 00:30;5,2
2017-09-02 00:45;6,3
2017-09-02 01:00;7,7
2017-09-02 01:15;8,1
2017-09-02 01:30;5,55
2017-09-02 01:45;4,85
2017-09-02 02:00;4,2
2017-09-02 02:15;4,85
2017-09-02 02:30;5,65
2017-09-02 02:45;5,75
2017-09-02 03:00;6
2017-09-02 03:15;5,85
2017-09-02 03:30;6,4
2017-09-02 03:45;6,4
2017-09-02 04:00;7,35
2017-09-02 04:15;6,85
2017-09-02 04:30;5,8
2017-09-02 04:45;6,45
2017-09-02 05:00;4,75
2017-09-02 05:15;4,15
2017-09-02 05:30;4,8
2017-09-02 05:45;4,7
2017-09-02 06:00;5
2017-09-02 06:15;4,05
2017-09-02 06:30;3,3
2017-09-02 06:45;5,85
2017-09-02 07:00;4,4
2017-09-02 07:15;5,45
2017-09-02 07:30;4,15
2017-09-02 07:45;3,35
2017-09-02 08:00;2,65
2017-09-02 08:15;5,1
2017-09-02 08:30;6,9
2017-09-02 08:45;11,4
2017-09-02 09:00;10,9
2017-09-02 09:15;10,65
2017-09-02 09:30;5,8
2017-09-02 09:45;11,75
2017-09-02 10:00;14,15
2017-09-02 10:15;12,25
2017-09-02 10:30;49,3
2017-09-02 10:45;47,15
2017-09-02 11:00;22,2
2017-09-02 11:15;24,9
2017-09-02 11:30;34,6
2017-09-02 11:45;38,35
2017-09-02 12:00;37,4
2017-09-02 12:15;39,1
2017-09-02 12:30;29,9
2017-09-02 12:45;27,6
2017-09-02 13:00;25,95
2017-09-02 13:15;24,65
2017-09-02 13:30;19,75
2017-09-02 13:45;17,35
2017-09-02 14:00;19
2017-09-02 14:15;19
2017-09-02 14:30;17,45
2017-09-02 14:45;17,15
2017-09-02 15:00;18,8
2017-09-02 15:15;20,45
2017-09-02 15:30;21,9
2017-09-02 15:45;21,15
2017-09-02 16:00;22,8
2017-09-02 16:15;23,35
2017-09-02 16:30;24,35
2017-09-02 16:45;23,9
2017-09-02 17:00;24,65
2017-09-02 17:15;24,05
2017-09-02 17:30;23,1
2017-09-02 17:45;23,6
2017-09-02 18:00;23,35
2017-09-02 18:15;21,95
2017-09-02 18:30;23,1
2017-09-02 18:45;18,65
2017-09-02 19:00;19,65
2017-09-02 19:15;21
2017-09-02 19:30;23,6
2017-09-02 19:45;24,5
2017-09-02 20:00;24,7
2017-09-02 20:15;23,3
2017-09-02 20:30;21,1
2017-09-02 20:45;22
2017-09-02 21:00;18,7
2017-09-02 21:15;20,7
2017-09-02 21:30;18,3
2017-09-02 21:45;17,6
2017-09-02 22:00;13,6
2017-09-02 22:15;12,5
2017-09-02 22:30;12,15
2017-09-02 22:45;11,05
2017-09-02 23:00;16,3
2017-09-02 23:15;12,2
2017-09-02 23:30;16
2017-09-02 23:45;14,65
2017-09-03 00:00;14,9
2017-09-03 00:15;14,4
2017-09-03 00:30;13,65
2017-09-03 00:45;13,7
2017-09-03 01:00;14,5
2017-09-03 01:15;13,85
2017-09-03 01:30;11,95
2017-09-03 01:45;12,4
2017-09-03 02:00;12,6
2017-09-03 02:15;13,5
2017-09-03 02:30;14,2
2017-09-03 02:45;12,4
2017-09-03 03:00;13,7
2017-09-03 03:15;11,05
2017-09-03 03:30;13,05
2017-09-03 03:45;12,25
2017-09-03 04:00;14
2017-09-03 04:15;14,25
2017-09-03 04:30;14,6
2017-09-03 04:45;13,75
2017-09-03 05:00;14,35
2017-09-03 05:15;12,8
2017-09-03 05:30;14,2
2017-09-03 05:45;14,55
2017-09-03 06:00;14,95
2017-09-03 06:15;14,95
2017-09-03 06:30;13,65
2017-09-03 06:45;14,35
2017-09-03 07:00;13,75
2017-09-03 07:15;16,5
2017-09-03 07:30;14,45
2017-09-03 07:45;16,3
2017-09-03 08:00;15,15
2017-09-03 08:15;15,6
2017-09-03 08:30;12,1
2017-09-03 08:45;12,5
2017-09-03 09:00;12,65
2017-09-03 09:15;16,45
2017-09-03 09:30;20,7
2017-09-03 09:45;21,4
2017-09-03 10:00;20,55
2017-09-03 10:15;24,9
2017-09-03 10:30;24,6
2017-09-03 10:45;24,45
2017-09-03 11:00;25,15
2017-09-03 11:15;24
2017-09-03 11:30;26,75
2017-09-03 11:45;26,5
2017-09-03 12:00;26,1
2017-09-03 12:15;27,4
2017-09-03 12:30;26,6
2017-09-03 12:45;27,5
2017-09-03 13:00;26,5
2017-09-03 13:15;23,7
2017-09-03 13:30;25,55
2017-09-03 13:45;26,05
2017-09-03 14:00;26,7
2017-09-03 14:15;25,45
2017-09-03 14:30;26,45
2017-09-03 14:45;26,3
2017-09-03 15:00;27,35
2017-09-03 15:15;27,75
2017-09-03 15:30;27
2017-09-03 15:45;27,55
2017-09-03 16:00;29,1
2017-09-03 16:15;29,65
2017-09-03 16:30;31,1
2017-09-03 16:45;33,65
2017-09-03 17:00;33,05
2017-09-03 17:15;32,3
2017-09-03 17:30;32,4
2017-09-03 17:45;31,9
2017-09-03 18:00;29,8
2017-09-03 18:15;28,8
2017-09-03 18:30;31,05
2017-09-03 18:45;28,4
2017-09-03 19:00;26,85
2017-09-03 19:15;27,9
2017-09-03 19:30;26,95
2017-09-03 19:45;27,05
2017-09-03 20:00;27,15
2017-09-03 20:15;23,15
2017-09-03 20:30;25,5
2017-09-03 20:45;26,5
2017-09-03 21:00;26,7
2017-09-03 21:15;26,4
2017-09-03 21:30;26,7
2017-09-03 21:45;25,7
2017-09-03 22:00;24,15
2017-09-03 22:15;26,2
2017-09-03 22:30;19,55
2017-09-03 22:45;19,95
2017-09-03 23:00;16,3
2017-09-03 23:15;10,9
2017-09-03 23:30;10,35
2017-09-03 23:45;11,9

